This is the latest recevied weather packets stored in our database for station/object KO4RJX-11. If no packets are shown the sender has not sent any weather packets the latest 10 day(s).
| Time | Temp. | Humidity | Pressure | Rain* | Wind** | Luminosity | Snow |
|---|---|---|---|---|---|---|---|
| 1777889994 | 8.89° C | 90% | 1012.4 hPa | 0 mm | - | - | - |
| 1777886394 | 8.89° C | 87% | 1012 hPa | 0 mm | - | - | - |
| 1777885994 | 8.89° C | 87% | 1012.4 hPa | 0 mm | - | - | - |
| 1777885594 | 8.89° C | 87% | 1012 hPa | 0 mm | - | - | - |
| 1777885194 | 8.89° C | 86% | 1012.4 hPa | 0 mm | - | - | - |
| 1777882927 | 9.44° C | 83% | 1012.4 hPa | 0 mm | - | - | - |
| 1777881194 | 9.44° C | 79% | 1012.4 hPa | 0 mm | - | - | - |
| 1777879595 | 10° C | 76% | 1012.4 hPa | 0 mm | - | - | - |
| 1777878394 | 10° C | 74% | 1012.4 hPa | 0 mm | - | - | - |
| 1777877994 | 10° C | 73% | 1012.4 hPa | 0 mm | - | - | - |
| 1777877595 | 10° C | 72% | 1012.4 hPa | 0 mm | - | - | - |
| 1777874794 | 10° C | 66% | 1012.4 hPa | 0 mm | - | - | - |
| 1777873594 | 10.56° C | 63% | 1012.4 hPa | 0 mm | - | - | - |
| 1777871725 | 10° C | 61% | 1012.4 hPa | 0 mm | - | - | - |
| 1777867994 | 10° C | 57% | 1012.7 hPa | 0 mm | - | - | - |
| 1777867194 | 11.11° C | 55% | 1012.7 hPa | 0 mm | - | - | - |
| 1777866394 | 11.11° C | 52% | 1012.7 hPa | 0 mm | - | - | - |
| 1777862795 | 10.56° C | 51% | 1012.4 hPa | 0 mm | - | - | - |
| 1777859994 | 11.11° C | 56% | 1012.4 hPa | 0 mm | - | - | - |
| 1777857594 | 12.22° C | 48% | 1012 hPa | 0 mm | - | - | - |
| 1777856394 | 12.22° C | 50% | 1011.7 hPa | 0 mm | - | - | - |
| 1777855995 | 12.78° C | 50% | 1011.7 hPa | 0 mm | - | - | - |
| 1777855325 | 13.33° C | 44% | 1011.4 hPa | 0 mm | - | - | - |
| 1777854795 | 13.33° C | 43% | 1011.4 hPa | 0 mm | - | - | - |
| 1777853994 | 13.89° C | 42% | 1011.4 hPa | 0 mm | - | - | - |
* Rain since midnight (hover to see other rain measurements)
** Current wind speed in m/s (hover to see current wind gust speed)